[[{"header":{"parameterUnit":"m.s-1","parameterCategory":1,"la1":30.2991,"la2":30.254,"lo1":-89.0895,"lo2":-89.0444,"dy":0.0017,"dx":0.0017,"nx":28,"ny":28,"refTime":"2024-06-02T09:00:00:Z","depth":0,"parameterNumber":2,"parameterNumberName":"U-component_of_WINDS"},"data":[0,0,0,0,0,0,0,0,0,0,0,0,0,0,0,0,0,0,0,0,0,0,0,0,0,0,0,0,0,0,0,0,0,0,0,0,0,0,0,0,0,0,0,0,0,0,0,0,0,0,0,0,0,0,0,0,0,0,-3.0403,-3.0402,0,-3.0279,-3.0277,-3.0276,-3.0155,-3.0153,-3.0151,-3.015,-3.002,-3.0018,-3.0016,0,0,0,0,0,0,0,0,0,0,0,0,0,-3.0536,-3.0534,-3.0403,-3.0402,-3.04,-3.0279,-3.0277,-3.0275,-3.0155,-3.0153,-3.0151,-3.0149,-3.0021,-3.0018,-3.0016,0,0,0,0,0,0,0,0,0,0,0,0,0,-3.0451,-3.0533,-3.0404,-3.0326,-3.0317,-3.0279,-3.0277,-3.0275,-3.0155,-3.0153,-3.0151,-3.0148,-3.0022,-3.0019,-3.0016,-3.0044,0,0,-3.0006,-3.0005,0,0,0,0,0,0,0,0,-3.0456,-3.0447,-3.0339,-3.0331,-3.0322,-3.023,-3.0276,-3.0197,-3.0156,-3.0217,-3.015,-3.0147,-3.0092,-3.0083,-3.0064,-3.0038,-3.0032,-3.0006,-3.0004,-3.0003,-3.0002,0,0,0,0,0,0,0,-3.0462,-3.0451,-3.0354,-3.0337,-3.0327,-3.0296,-3.0282,-3.0261,-3.0169,-3.0211,-3.0202,-3.0189,-3.0086,-3.0068,-3.006,-3.003,-3.0006,-3.0004,-3.0002,-3.0001,-3.0021,-3.0023,0,0,0,0,0,0,-3.048,-3.0457,-3.0358,-3.035,-3.0385,-3.0296,-3.0279,-3.0262,-3.0169,-3.0152,-3.0191,-3.0184,-3.0074,-3.0064,-3.0055,-3.0081,-3.0003,-3.0,-2.9999,-3.0018,-3.0021,-3.0024,0,0,0,0,0,0,-3.0484,-3.0473,-3.0363,-3.0401,-3.0385,-3.0296,-3.0277,-3.026,-3.0241,-3.0154,-3.0136,-3.0189,-3.0072,-3.006,-3.0048,-3.0075,-2.9999,-2.9996,-3.0016,-3.0019,-3.0023,-3.0135,0,0,0,0,0,0,-3.0488,-3.0475,-3.0485,-3.0402,-3.0383,-3.0358,-3.0279,-3.026,-3.0237,-3.0226,-3.0147,-3.0131,-3.0069,-3.0053,-3.0045,-3.007,-2.9994,-3.0013,-3.0017,-3.0021,-3.0128,-3.0142,-3.0154,0,0,0,0,0,-3.0493,-3.0521,-3.0486,-3.0474,-3.0394,-3.036,-3.0349,-3.0277,-3.0239,-3.0248,-3.0192,-3.0134,-3.0075,-3.0053,-3.0043,-3.0067,-3.0011,-3.0016,-3.0021,-3.0123,-3.0139,-3.0153,0,0,0,0,0,0,-3.0607,-3.0508,-3.0468,-3.047,-3.0425,-3.034,-3.0348,-3.0297,-3.026,-3.0251,-3.0163,-3.0146,-3.0145,-3.0105,-3.0082,-3.009,-3.0034,-3.0038,-3.0115,-3.013,-3.0143,-3.0151,-2.9991,0,0,0,0,0,-3.0633,-3.0614,-3.0529,-3.0539,-3.0518,-3.0438,-3.042,-3.0369,-3.0318,-3.0297,-3.024,-3.0192,-3.0162,-3.0144,-3.0112,-3.0123,-3.0103,-3.0135,-3.0148,-3.0159,-3.0162,-3.0164,-3.0176,-3.0041,-3.0041,-3.0041,0,0,-3.0685,-3.0629,-3.0622,-3.056,-3.0519,-3.05,-3.0422,-3.0406,-3.0391,-3.0294,-3.0279,-3.0237,-3.0177,-3.0177,-3.0174,-3.0144,-3.0195,-3.0165,-3.0175,-3.0171,-3.0171,-3.0183,-3.0195,-3.0045,-3.0044,-3.0043,0,0,-3.0771,-3.0727,-3.073,-3.0691,-3.0629,-3.0576,-3.0578,-3.05,-3.0468,-3.0452,-3.0379,-3.0361,-3.0312,-3.0272,-3.0246,-3.0319,-3.0263,-3.0311,-3.0376,-3.0379,-3.039,-3.0398,-3.0423,-3.0433,-3.0315,-3.0316,-3.0316,0,-3.0843,-3.0813,-3.0738,-3.0727,-3.0701,-3.0615,-3.0617,-3.0582,-3.0513,-3.0498,-3.0466,-3.0402,-3.0356,-3.0345,-3.0363,-3.0345,-3.0343,-3.0318,-3.0394,-3.0402,-3.041,-3.0432,-3.0442,-3.0322,-3.0321,-3.032,-3.032,0,-3.0904,-3.0885,-3.0895,-3.0832,-3.0808,-3.0803,-3.0727,-3.0712,-3.0664,-3.0615,-3.06,-3.0542,-3.0496,-3.0491,-3.0443,-3.0473,-3.0456,-3.0411,-3.0353,-3.043,-3.0449,-3.0458,-3.033,-3.0328,-3.0326,-3.0325,0,0,-3.1055,-3.0952,-3.0957,-3.0927,-3.0854,-3.0837,-3.083,-3.0786,-3.0774,-3.0731,-3.0721,-3.0683,-3.064,-3.0611,-3.0558,-3.0561,-3.0622,-3.0515,-3.0512,-3.0535,-3.065,-3.0683,-3.0694,-3.0586,-3.0587,-3.0588,-3.0654,0,-3.1126,-3.1107,-3.104,-3.1041,-3.1021,-3.094,-3.0933,-3.0888,-3.0842,-3.0818,-3.0767,-3.0741,-3.0688,-3.0669,-3.0669,-3.0615,-3.0643,-3.0609,-3.0574,-3.0574,-3.0589,-3.0704,-3.0739,-3.0804,-3.0662,-3.0663,-3.0664,0,-3.1206,-3.1169,-3.1168,-3.1096,-3.1085,-3.108,-3.1035,-3.1014,-3.0961,-3.0928,-3.0896,-3.0838,-3.0825,-3.0774,-3.0753,-3.0732,-3.0714,-3.0686,-3.0686,-3.0678,-3.0622,-3.0697,-3.0823,-3.0832,-3.0675,-3.0674,-3.0674,0,-3.1314,-3.1264,-3.1256,-3.1234,-3.115,-3.1148,-3.1114,-3.1058,-3.1037,-3.0998,-3.0983,-3.0943,-3.0921,-3.0891,-3.0824,-3.0793,-3.0811,-3.0754,-3.0782,-3.0783,-3.0786,-3.0787,-3.0909,-3.078,-3.078,-3.078,-3.0779,0,-3.1399,-3.1401,-3.1304,-3.1299,-3.1299,-3.1223,-3.1225,-3.1182,-3.1134,-3.1119,-3.1047,-3.1035,-3.0948,-3.0926,-3.0874,-3.0864,-3.0855,-3.0827,-3.0812,-3.0832,-3.0835,-3.0817,-3.081,-3.0782,-3.0781,-3.0781,-3.0781,0,-3.1518,-3.1453,-3.144,-3.1363,-3.1344,-3.1347,-3.128,-3.1272,-3.1224,-3.1206,-3.1197,-3.112,-3.109,-3.1021,-3.0972,-3.0937,-3.0941,-3.0916,-3.0959,-3.0949,-3.098,-3.0977,-3.1092,-3.1103,-3.097,-3.0972,-3.0973,0,-3.1576,-3.1575,-3.1499,-3.1484,-3.1453,-3.143,-3.1408,-3.1334,-3.1314,-3.1254,-3.1254,-3.1219,-3.1186,-3.1142,-3.1081,-3.1044,-3.1016,-3.1059,-3.101,-3.1029,-3.1014,-3.1014,-3.1013,-3.1069,-3.1071,-3.1073,-3.1074,0,-3.1684,-3.1652,-3.1623,-3.1584,-3.156,-3.1525,-3.1486,-3.1478,-3.1395,-3.1376,-3.1345,-3.132,-3.1272,-3.1237,-3.1191,-3.1154,-3.11,-3.1091,-3.1094,-3.1113,-3.1137,-3.1122,-3.0986,-3.1087,-3.1086,-3.1085,-3.1084,-3.1084,-3.1772,-3.1768,-3.1713,-3.1684,-3.1648,-3.1613,-3.1602,-3.1553,-3.1526,-3.148,-3.1439,-3.1412,-3.136,-3.1292,-3.1259,-3.1237,-3.1209,-3.1216,-3.1217,-3.1219,-3.1227,-3.1143,-3.1229,-3.1228,-3.1228,-3.1227,-3.1227,0,-3.1874,-3.1836,-3.181,-3.1758,-3.1736,-3.1689,-3.1644,-3.1627,-3.1605,-3.1561,-3.1531,-3.1496,-3.1463,-3.14,-3.1361,-3.1355,-3.133,-3.1348,-3.1346,-3.1338,-3.1254,-3.1254,-3.1369,-3.1369,-3.1369,-3.1369,-3.1369,-3.1369,-3.1924,-3.1915,-3.1877,-3.1849,-3.181,-3.1784,-3.1762,-3.173,-3.1695,-3.1659,-3.1631,-3.1591,-3.154,-3.1497,-3.1465,-3.1447,-3.1435,-3.1461,-3.1435,-3.1357,-3.1344,-3.1331,-3.133,-3.1459,-3.146,-3.152,-3.1521,-3.1521]},{"header":{"parameterUnit":"m.s-1","parameterCategory":1,"la1":30.2991,"la2":30.254,"lo1":-89.0895,"lo2":-89.0444,"dy":0.0017,"dx":0.0017,"nx":28,"ny":28,"refTime":"2024-06-02T09:00:00:Z","depth":0,"parameterNumber":3,"parameterNumberName":"V-component_of_WINDS"},"data":[0,0,0,0,0,0,0,0,0,0,0,0,0,0,0,0,0,0,0,0,0,0,0,0,0,0,0,0,0,0,0,0,0,0,0,0,0,0,0,0,0,0,0,0,0,0,0,0,0,0,0,0,0,0,0,0,0,0,2.8371,2.8371,0,2.8381,2.8381,2.8381,2.841,2.8411,2.8411,2.8412,2.8419,2.8419,2.8418,0,0,0,0,0,0,0,0,0,0,0,0,0,2.8375,2.8375,2.8371,2.8371,2.8371,2.8381,2.8381,2.8381,2.841,2.8411,2.8411,2.8412,2.8419,2.8419,2.8418,0,0,0,0,0,0,0,0,0,0,0,0,0,2.8378,2.8375,2.8371,2.8387,2.8388,2.8381,2.8381,2.8381,2.841,2.8411,2.8412,2.8413,2.842,2.8419,2.8418,2.8396,0,0,2.8417,2.8416,0,0,0,0,0,0,0,0,2.8378,2.8378,2.8384,2.8386,2.8387,2.8395,2.8385,2.8386,2.8409,2.8401,2.8412,2.8413,2.841,2.8411,2.841,2.8396,2.8396,2.8416,2.8416,2.8416,2.8416,0,0,0,0,0,0,0,2.8377,2.8377,2.8375,2.8384,2.8386,2.8393,2.8394,2.8386,2.84,2.8402,2.8404,2.8405,2.8411,2.8411,2.8411,2.8396,2.8417,2.8416,2.8416,2.8415,2.8365,2.8364,0,0,0,0,0,0,2.8375,2.8377,2.8375,2.8375,2.8385,2.8392,2.8394,2.8392,2.8401,2.8403,2.8405,2.8407,2.8411,2.8411,2.8411,2.8386,2.8416,2.8415,2.8415,2.8366,2.8365,2.8364,0,0,0,0,0,0,2.8375,2.8375,2.8374,2.8377,2.8377,2.8391,2.8389,2.8391,2.8391,2.8402,2.8405,2.8401,2.8412,2.8412,2.84,2.8386,2.8415,2.8415,2.8367,2.8366,2.8364,2.8334,0,0,0,0,0,0,2.8375,2.8375,2.8366,2.8376,2.8377,2.8363,2.8388,2.8391,2.839,2.8393,2.84,2.8402,2.8413,2.84,2.8399,2.8386,2.8414,2.8368,2.8367,2.8365,2.8336,2.8332,2.8328,0,0,0,0,0,2.8375,2.8357,2.8366,2.8365,2.8367,2.8362,2.8363,2.8376,2.8389,2.8381,2.8388,2.8402,2.8388,2.8399,2.8398,2.8384,2.8369,2.8367,2.8365,2.8338,2.8333,2.8328,0,0,0,0,0,0,2.8343,2.8358,2.8369,2.8353,2.8356,2.8367,2.8357,2.837,2.8369,2.8371,2.8387,2.8389,2.8374,2.8378,2.839,2.8363,2.8381,2.8378,2.8361,2.8356,2.8352,2.8351,2.8414,0,0,0,0,0,2.8335,2.833,2.8343,2.8328,2.8329,2.8343,2.8341,2.8352,2.8355,2.8357,2.8363,2.8366,2.8362,2.8359,2.8356,2.8337,2.8339,2.8327,2.8323,2.832,2.8317,2.8308,2.8302,2.8357,2.8357,2.8357,0,0,2.8316,2.8324,2.832,2.8322,2.8326,2.832,2.8344,2.8337,2.8333,2.8355,2.8345,2.835,2.8354,2.8338,2.8331,2.8341,2.8303,2.8317,2.8314,2.8313,2.8305,2.83,2.8295,2.8355,2.8355,2.8356,0,0,2.828,2.8286,2.8274,2.8278,2.8284,2.8293,2.829,2.83,2.8304,2.8294,2.8311,2.8307,2.83,2.8302,2.8302,2.8269,2.8281,2.8267,2.8245,2.8235,2.8231,2.8227,2.8215,2.8211,2.8265,2.8265,2.8265,0,2.8256,2.825,2.8266,2.8258,2.8259,2.828,2.8269,2.8271,2.8275,2.8275,2.8286,2.8279,2.8283,2.8268,2.826,2.826,2.8257,2.8266,2.8231,2.8227,2.8224,2.8213,2.8208,2.8263,2.8263,2.8263,2.8263,0,2.822,2.8215,2.8205,2.821,2.8209,2.8199,2.8214,2.8211,2.8222,2.823,2.822,2.8226,2.8225,2.8222,2.8232,2.8209,2.8215,2.8228,2.8246,2.8217,2.8206,2.8202,2.826,2.8261,2.8262,2.8262,0,0,2.8163,2.8178,2.8174,2.8177,2.8186,2.8183,2.8174,2.8174,2.8172,2.8174,2.8167,2.8162,2.8174,2.8174,2.8185,2.8177,2.815,2.8191,2.8191,2.8183,2.8126,2.8116,2.8111,2.8159,2.8158,2.8157,2.8125,0,2.8129,2.8116,2.8131,2.8114,2.811,2.8131,2.8124,2.8128,2.8136,2.8133,2.8141,2.8137,2.8153,2.8154,2.8147,2.8155,2.8139,2.8157,2.8152,2.8152,2.815,2.8105,2.8095,2.8064,2.8121,2.8121,2.812,0,2.8087,2.8089,2.8072,2.8084,2.8082,2.8075,2.8077,2.8075,2.808,2.8086,2.8087,2.8101,2.8093,2.8111,2.81,2.8112,2.8111,2.8115,2.8114,2.8114,2.8134,2.8104,2.8055,2.805,2.8114,2.8115,2.8115,0,2.8047,2.8046,2.8036,2.8038,2.805,2.8045,2.805,2.8057,2.8056,2.8058,2.8058,2.8058,2.8058,2.8057,2.807,2.8083,2.8058,2.8077,2.8062,2.8062,2.8056,2.8056,2.8006,2.8055,2.8055,2.8055,2.8056,0,2.8008,2.7996,2.8018,2.8012,2.8001,2.8018,2.8006,2.8013,2.8019,2.8014,2.8032,2.8027,2.8044,2.8041,2.8051,2.8041,2.8041,2.8045,2.8048,2.8043,2.8043,2.8043,2.8045,2.8054,2.8055,2.8055,2.8055,0,2.7961,2.7975,2.7966,2.7979,2.7982,2.7973,2.7984,2.7979,2.7988,2.7982,2.7981,2.7996,2.7993,2.8006,2.8005,2.8012,2.7997,2.8003,2.7995,2.7997,2.7982,2.7983,2.7929,2.7923,2.7976,2.7976,2.7975,0,2.7934,2.7927,2.794,2.7938,2.7943,2.794,2.794,2.7957,2.7956,2.7963,2.7957,2.7956,2.7956,2.7951,2.7961,2.796,2.7967,2.7948,2.7967,2.7963,2.7967,2.7967,2.7966,2.7944,2.7943,2.7943,2.7942,0,2.7886,2.7894,2.7894,2.7897,2.7897,2.7899,2.7903,2.79,2.7919,2.7917,2.7915,2.7916,2.7916,2.7914,2.7916,2.7921,2.7934,2.7937,2.7933,2.7928,2.7924,2.7927,2.7984,2.7937,2.7938,2.7938,2.7939,2.7939,2.7849,2.7844,2.7852,2.7852,2.7857,2.786,2.7856,2.7865,2.7864,2.7866,2.7876,2.7873,2.7879,2.7884,2.7887,2.7884,2.7893,2.7888,2.7886,2.7885,2.7882,2.7925,2.7884,2.7884,2.7885,2.7885,2.7885,0,2.7802,2.7809,2.7808,2.7814,2.7813,2.7828,2.7833,2.7831,2.7828,2.7833,2.7834,2.7832,2.7831,2.7842,2.7842,2.7838,2.7844,2.7837,2.7838,2.7839,2.7874,2.7877,2.7832,2.7832,2.7832,2.7832,2.7832,2.7832,2.7778,2.7769,2.7778,2.7772,2.7779,2.7777,2.7778,2.7781,2.7786,2.7783,2.7783,2.7791,2.7798,2.7799,2.7799,2.7802,2.7802,2.7793,2.7798,2.7831,2.7836,2.7841,2.7844,2.7793,2.7792,2.7763,2.7762,2.7762]}]]